Regional Weather Roundup
Issued by NWS

Home | Current Version | Previous Version | Graphics & Text | Print | Product List | Glossary On
Versions: 1 2 3 4 5 6 7 8 9 10 11 12 13 14 15 16 17 18 19 20 21 22 23 24 25 26 27 28 29 30 31 32 33 34 35 36 37 38 39 40 41 42 43 44 45 46 47 48 49 50
476
ASUS43 KMPX 212210
RWRMN
WEATHER ROUNDUP FOR MINNESOTA
NATIONAL WEATHER SERVICE TWIN CITIES/CHANHASSEN MN
500 PM CDT SAT OCT 21 2017


NOTE: "FAIR" INDICATES FEW OR NO CLOUDS BELOW 12,000 FEET WITH NO
SIGNIFICANT WEATHER AND/OR OBSTRUCTIONS TO VISIBILITY. N/A MEANS
CURRENT SKY AND/OR WEATHER CONDITIONS ARE NOT AVAILABLE.

MNZ060>063-068>070-212300-
   Twin Cities Metro

CITY           SKY/WX    TMP DP  RH WIND       PRES   REMARKS
TWIN CITIES    CLOUDY    69  61  75 S20G30    29.66R
ST PAUL        CLOUDY    67  61  81 S15       29.66S
CRYSTAL        CLOUDY    68  58  70 S15G23    29.64R
BLAINE         CLOUDY    68  63  83 S14G20    29.64S
LAKEVILLE      PTSUNNY   66  61  82 S14G28    29.67R
EDEN PRAIRIE   PTSUNNY   68  60  75 S20G29    29.63R
SOUTH ST PAUL  PTSUNNY   68  61  76 S17G28    29.66R
LAKE ELMO      CLOUDY    66  61  82 S21G28    29.68S
$$
MNZ001>005-007-008-013>017-022>024-027-028-212300-
   Northwest Minnesota

CITY           SKY/WX    TMP DP  RH WIND       PRES   REMARKS
BEMIDJI        RAIN      55  53  94 W14       29.54R
HALLOCK        CLOUDY    61  45  55 W24       29.48R
ROSEAU         CLOUDY    63  46  55 SW10      29.47S
WARROAD        CLOUDY    61  52  72 SW9       29.48R
THIEF RVR FALL LGT RAIN  59  43  55 W23       29.54
CROOKSTON      CLOUDY    59  45  58 W20       29.54R
FOSSTON        DRIZZLE   52  48  87 S9        29.56R
DETROIT LAKES  CLOUDY    52  48  87 SW6       29.59R
MOORHEAD       CLOUDY    57  45  62 W17       29.59R
PARK RAPIDS    LGT RAIN  53  50  89 W13       29.57R
MAHNOMEN       CLOUDY    52  50  91 S8        29.56R
$$
MNZ006-009>011-018-025>026-212300-
   North Central Minnesota

CITY           SKY/WX    TMP DP  RH WIND       PRES   REMARKS
FLAG ISLAND    CLOUDY    54  54 100 S10       29.46R FOG
INTL FALLS     CLOUDY    62  57  83 S9        29.55R
WASKISH        CLOUDY    63  61  94 S8        29.50S
BIG FORK       DRIZZLE   61  59  94 S10G17    29.55S
LONGVILLE      CLOUDY    63  61  94 S10G17    29.55R
GRAND RAPIDS   CLOUDY    61  60  97 S16       29.59R FOG
CRANE LAKE     CLOUDY    59  57  94 CALM      29.61R
ORR            DRIZZLE   59  55  88 S10G16    29.56S
COOK           DRIZZLE   61  57  88 S9G17     29.60S
WALKER         LGT RAIN  62  59  91 SE9       29.52S
$$
MNZ012-019>021-037-212300-
   Northeast Minnesota

CITY           SKY/WX    TMP DP  RH WIND       PRES   REMARKS
DULUTH         DRIZZLE   60  60 100 S14G25    29.66R FOG
ELY            CLOUDY    59  57  94 S9G18     29.64R
HIBBING        CLOUDY    60  58  92 S8G20     29.61R
EVELETH        CLOUDY    60  60 100 S12G21    29.63S FOG
DULUTH HARBOR  CLOUDY    64  61  88 S17G24    29.65S
TWO HARBORS    MOCLDY    63  57  82 S6        29.66R
SILVER BAY     CLOUDY    61  59  94 CALM      29.67R
GRAND MARAIS     N/A     54  54 100 NE5       29.70S
G MARAIS ARPRT FOG       55  52  88 S8        29.72S VSB 1/2
$$
MNZ029>031-032-039>041-046>048-054>057-064-212300-
   West Central Minnesota

CITY           SKY/WX    TMP DP  RH WIND       PRES   REMARKS
FERGUS FALLS   CLOUDY    55  46  71 W15       29.61R
WHEATON        CLOUDY    55  39  54 W21G28    29.66R
MORRIS         CLOUDY    57  46  67 W15       29.63R
ALEXANDRIA     CLOUDY    55  48  77 W9        29.63R
ELBOW LAKE     CLOUDY    55  47  74 NW10G18   29.62R
WADENA         CLOUDY    52  48  87 W5        29.59R
GLENWOOD       CLOUDY    54  48  82 W12       29.64R
APPLETON       CLOUDY    59  43  55 W16G30    29.66R
BENSON         CLOUDY    57  46  67 NW10      29.67R
ORTONVILLE     CLOUDY    55  43  62 W13G25    29.67R
MADISON        CLOUDY    59  45  58 W20G26    29.68R
WILLMAR        CLOUDY    57  52  82 W13G18    29.67R
$$
MNZ033>034-036-042>043-049>051-058-059-212300-
   Central Minnesota

CITY           SKY/WX    TMP DP  RH WIND       PRES   REMARKS
ST CLOUD       CLOUDY    66  62  87 S12G20    29.60R
SAUK CENTRE    CLOUDY    55  49  80 W15       29.62R
PAYNESVILLE    CLOUDY    56  52  86 W10       29.64R
AITKIN         CLOUDY    59  57  94 SE13G20   29.57S
PINE RIVER     CLOUDY    61  57  88 S12G17    29.59R
BRAINERD       CLOUDY    64  60  87 S14G24    29.57S
STAPLES        HVY RAIN  54  50  87 W14G26    29.58R
LONG PRAIRIE   CLOUDY    54  48  82 SW10G18   29.61R
LITTLE FALLS   LGT RAIN  64  55  72 SE15G24   29.57S
LITCHFIELD     CLOUDY    57  55  94 W13G18    29.64R
BUFFALO        CLOUDY    67  60  77 SE14G22   29.62S
MAPLE LAKE     CLOUDY    67  62  84 SE10G20   29.61F
HUTCHINSON     TSTM      59  58  97 W10G20    29.65R
$$
MNZ037-044-045-052-053-212300-
   East Central Minnesota

CITY           SKY/WX    TMP DP  RH WIND       PRES   REMARKS
PRINCETON      CLOUDY    66  63  88 SE13G20   29.61F
MORA           CLOUDY    63  59  88 S12G18    29.65R
CAMBRIDGE      CLOUDY    64  64 100 S13       29.65R
RUSH CITY      CLOUDY    64  59  82 S10G16    29.65S
MOOSE LAKE     CLOUDY    61  59  94 S7        29.63S FOG
HINCKLEY       CLOUDY    64  61  88 S13G20    29.64S
CLOQUET        CLOUDY    61  57  88 S9        29.65S FOG
MCGREGOR       CLOUDY    61  59  94 S13G22    29.61F
$$
MNZ071>073-080-081-089-090-097-098-212300-
   Southwest Minnesota

CITY           SKY/WX    TMP DP  RH WIND       PRES   REMARKS
MONTEVIDEO     CLOUDY    59  46  63 NW18G25   29.68R
GRANITE FALLS  CLOUDY    59  48  66 W13       29.70R
CANBY          CLOUDY    57  42  58 NW17G25   29.72R
MARSHALL       CLOUDY    57  44  62 W17       29.70R
REDWOOD FALLS  CLOUDY    58  48  69 W12G21    29.68R
OLIVIA         CLOUDY    55  50  82 W13       29.67R
PIPESTONE      CLOUDY    54  39  58 NW15G23   29.74R
WORTHINGTON    LGT RAIN  54  46  74 W17G26    29.74R
JACKSON        CLOUDY    55  46  71 W23G30    29.72R
TRACY          CLOUDY    58  46  65 W13G18    29.72R
SLAYTON        CLOUDY    55  45  67 W20       29.74R
$$
MNZ065>067-074>077-082>085-091>093-212300-
   South Central Minnesota

CITY           SKY/WX    TMP DP  RH WIND       PRES   REMARKS
MANKATO        MOSUNNY   68  61  78 S18G26    29.64R
NEW ULM          N/A     57  54  88 W17G26    29.67R THUNDER
ST JAMES       CLOUDY    59  54  82 W16G23    29.70R
FAIRMONT       CLOUDY    63  57  82 W16       29.70R
GLENCOE        CLOUDY    68  61  78 S12G21    29.60S
FARIBAULT      MOSUNNY   68  61  77 S20G31    29.68R
OWATONNA       MOSUNNY   66  61  82 S22G31    29.69R
WASECA         PTSUNNY   64  59  82 S16G25    29.68S
$$
MNZ078>079-086>088-094>096-212300-
   Southeast Minnesota

CITY           SKY/WX    TMP DP  RH WIND       PRES   REMARKS
ROCHESTER      CLOUDY    67  59  75 S17       29.76F
RED WING       SUNNY     70  57  64 S15G28    29.70S
STANTON        SUNNY     69  60  72 S25       29.66S
DODGE CENTER   MOSUNNY   66  59  77 S23G30    29.73S
WINONA         CLOUDY    70  59  68 SE9       29.78F
AUSTIN         CLOUDY    66  59  77 S14       29.73F
PRESTON        CLOUDY    67  57  72 S17G24    29.78F
$$
ABBREVIATIONS USED IN REMARKS
   TC - TEMPERATURES IN CELSIUS
  WCI - WIND CHILL INDEX
   HX - HEAT INDEX
  VSB - VISIBILITY
$$




USA.gov is the U.S. government's official web portal to all federal, state and local government web resources and services.